[[[{"header":{"parameterUnit":"kt","parameterCategory":2,"dx":1,"dy":1,"la1":30.253999710083008,"la2":30.299108505249023,"lo1":-89.0895004272461,"lo2":-89.04439544677734,"nx":28,"ny":28,"refTime":"2022-10-25T21:00:00:Z","depth":0,"parameterNumber":1,"parameterNumberName":"U-component_of_WINDS"},"data":[-4.9823,-5.0042,-5.0007,-5.0241,-5.0249,-5.0403,-5.0448,-5.0501,-5.0534,-5.0714,-5.0811,-5.0799,-5.0819,-5.0927,-5.1032,-5.1024,-5.1074,-5.1176,-5.115,-5.072,-5.0659,-5.06,-5.0547,-5.1185,-5.1186,-5.1603,-5.1607,-5.161,-4.951,-4.952,-4.9632,-4.9719,-4.9815,-4.9694,-4.9753,-4.9843,-4.9985,-5.0027,-5.012,-5.0277,-5.0396,-5.0381,-5.049,-5.0592,-5.0544,-5.0625,-5.062,-5.0626,-5.0163,-5.0107,-5.0662,-5.0662,-5.0662,-5.0662,-5.0662,-5.0662,-4.893,-4.9063,-4.9094,-4.9216,-4.9249,-4.9307,-4.9428,-4.9408,-4.9519,-4.9628,-4.9563,-4.9724,-4.976,-4.9874,-4.9904,-5.0028,-4.9933,-5.0012,-5.0033,-5.0056,-5.0087,-4.9497,-5.0044,-5.0042,-5.0041,-5.0039,-5.0038,0,-4.8497,-4.8458,-4.8564,-4.866,-4.8747,-4.8818,-4.8877,-4.895,-4.8856,-4.8952,-4.9088,-4.916,-4.9303,-4.9429,-4.9522,-4.9537,-4.9427,-4.9409,-4.9464,-4.9503,-4.9523,-4.952,-4.8772,-4.9396,-4.939,-4.9386,-4.9383,-4.938,-4.7915,-4.8072,-4.8087,-4.8166,-4.8189,-4.8319,-4.8389,-4.8294,-4.8373,-4.8432,-4.8554,-4.8676,-4.877,-4.8994,-4.8972,-4.908,-4.9029,-4.9271,-4.9045,-4.9072,-4.9039,-4.9034,-4.9051,-4.932,-4.9328,-4.9334,-4.9339,0,-4.7592,-4.7532,-4.7765,-4.7763,-4.7768,-4.7939,-4.7938,-4.8066,-4.8033,-4.8206,-4.824,-4.8191,-4.8326,-4.8264,-4.8406,-4.837,-4.8655,-4.8598,-4.8641,-4.8629,-4.8844,-4.8827,-4.9542,-4.9632,-4.8963,-4.8969,-4.8974,0,-4.7075,-4.7286,-4.7185,-4.7323,-4.7553,-4.7452,-4.7684,-4.7678,-4.7707,-4.7842,-4.7702,-4.7832,-4.7731,-4.7853,-4.78,-4.802,-4.8045,-4.8033,-4.8018,-4.805,-4.8052,-4.8096,-4.8069,-4.7969,-4.7966,-4.7963,-4.796,0,-4.658,-4.6771,-4.6994,-4.7028,-4.705,-4.7157,-4.7171,-4.7202,-4.7272,-4.7352,-4.7397,-4.7498,-4.7555,-4.7636,-4.7568,-4.7418,-4.7834,-4.7613,-4.7822,-4.7825,-4.7924,-4.792,-4.8561,-4.7955,-4.7954,-4.7953,-4.7952,0,-4.6156,-4.6237,-4.6568,-4.6582,-4.6637,-4.6784,-4.6876,-4.6987,-4.703,-4.7005,-4.7068,-4.697,-4.7153,-4.6938,-4.7191,-4.7015,-4.7079,-4.7082,-4.7096,-4.7116,-4.6879,-4.7258,-4.7869,-4.7934,-4.7124,-4.7117,-4.7111,0,-4.5609,-4.5926,-4.5841,-4.6158,-4.6297,-4.6131,-4.6292,-4.6334,-4.6314,-4.6429,-4.6406,-4.654,-4.6366,-4.64,-4.6532,-4.6517,-4.6746,-4.6483,-4.6658,-4.6665,-4.6657,-4.7217,-4.7328,-4.774,-4.7022,-4.7031,-4.7038,0,-4.5178,-4.52,-4.5263,-4.5298,-4.5336,-4.5451,-4.5636,-4.5744,-4.5826,-4.5887,-4.6042,-4.6224,-4.6102,-4.616,-4.6091,-4.6233,-4.6588,-4.6083,-4.6083,-4.6181,-4.697,-4.7073,-4.7143,-4.651,-4.6521,-4.6529,-4.6967,0,-4.456,-4.471,-4.4874,-4.4957,-4.5035,-4.5229,-4.5161,-4.5252,-4.5176,-4.5152,-4.5376,-4.5395,-4.5509,-4.5569,-4.5498,-4.584,-4.5775,-4.5644,-4.5437,-4.5802,-4.5945,-4.6003,-4.5228,-4.5222,-4.5216,-4.5212,0,0,-4.4055,-4.4268,-4.4169,-4.4344,-4.4405,-4.4231,-4.4445,-4.4483,-4.4567,-4.4614,-4.4495,-4.4759,-4.4782,-4.5063,-4.5171,-4.5216,-4.5273,-4.5148,-4.5627,-4.5674,-4.5717,-4.5871,-4.5932,-4.5202,-4.52,-4.5198,-4.5196,0,-4.3816,-4.3837,-4.4048,-4.4082,-4.413,-4.4092,-4.4143,-4.4161,-4.4156,-4.4373,-4.4231,-4.4357,-4.4571,-4.4615,-4.4666,-4.5109,-4.4999,-4.5148,-4.5412,-4.5574,-4.5628,-4.5675,-4.5838,-4.5897,-4.5183,-4.5184,-4.5184,0,-4.3384,-4.3395,-4.3489,-4.3615,-4.3645,-4.3792,-4.3555,-4.3719,-4.3828,-4.3633,-4.3854,-4.3857,-4.3909,-4.4181,-4.4301,-4.4198,-4.4753,-4.4565,-4.4598,-4.4612,-4.4766,-4.4831,-4.4889,-4.413,-4.4126,-4.4123,0,0,-4.3188,-4.3325,-4.3309,-4.3559,-4.3588,-4.3535,-4.3606,-4.3539,-4.3587,-4.3608,-4.361,-4.3664,-4.3787,-4.3871,-4.3983,-4.429,-4.4296,-4.4438,-4.4488,-4.4528,-4.4565,-4.473,-4.4794,-4.411,-4.411,-4.411,0,0,-4.3095,-4.3086,-4.3,-4.3281,-4.3331,-4.3334,-4.349,-4.3387,-4.3481,-4.3452,-4.3349,-4.3359,-4.3611,-4.3621,-4.3456,-4.3909,-4.3704,-4.3742,-4.3895,-4.3956,-4.4005,-4.4001,-4.3221,0,0,0,0,0,-4.2817,-4.3085,-4.3009,-4.3045,-4.3206,-4.3376,-4.3396,-4.3316,-4.3171,-4.3297,-4.3282,-4.3156,-4.3511,-4.3363,-4.3402,-4.3589,-4.3945,-4.3974,-4.4002,-4.4271,-4.4336,-4.4391,0,0,0,0,0,0,-4.2831,-4.2877,-4.3001,-4.3017,-4.3052,-4.3365,-4.3104,-4.309,-4.3156,-4.3129,-4.3163,-4.3158,-4.3094,-4.3337,-4.3374,-4.3553,-4.3209,-4.3956,-4.3981,-4.4004,-4.4293,-4.4347,-4.4392,0,0,0,0,0,-4.2842,-4.2878,-4.3156,-4.3012,-4.3043,-4.3,-4.3093,-4.3079,-4.313,-4.3108,-4.3098,-4.3063,-4.3101,-4.3127,-4.3358,-4.3538,-4.3183,-4.3197,-4.3973,-4.3992,-4.401,-4.4319,0,0,0,0,0,0,-4.2849,-4.2867,-4.316,-4.3167,-4.2905,-4.2981,-4.2989,-4.3071,-4.3102,-4.3096,-4.3001,-4.298,-4.311,-4.3128,-4.3148,-4.3538,-4.3161,-4.3176,-4.3184,-4.3988,-4.4003,-4.4017,0,0,0,0,0,0,-4.2847,-4.2874,-4.3164,-4.3033,-4.3023,-4.2964,-4.2972,-4.3157,-4.3105,-4.2994,-4.2976,-4.2992,-4.3079,-4.313,-4.3145,-4.3438,-4.3145,-4.3159,-4.3168,-4.3174,-4.4,-4.4012,0,0,0,0,0,0,-4.2857,-4.288,-4.303,-4.3023,-4.3014,-4.308,-4.3126,-4.3296,-4.299,-4.2995,-4.2961,-4.2947,-4.3086,-4.3099,-4.3144,-4.3431,-4.3436,-4.3145,-4.3155,-4.3161,-4.3166,0,0,0,0,0,0,0,-4.2865,-4.2729,-4.3122,-4.3016,-4.3007,-4.3226,-4.3228,-4.3229,-4.2987,-4.2976,-4.2964,-4.2953,-4.3067,-4.3082,-4.3097,-4.3426,0,0,-4.3144,-4.3151,0,0,0,0,0,0,0,0,-4.2717,-4.2726,-4.3123,-4.3124,-4.3125,-4.3226,-4.3228,-4.3229,-4.2985,-4.2976,-4.2966,-4.2958,-4.3071,-4.3083,-4.3095,0,0,0,0,0,0,0,0,0,0,0,0,0,0,0,-4.3123,-4.3124,0,-4.3226,-4.3228,-4.3229,-4.2984,-4.2976,-4.2969,-4.2961,-4.3074,-4.3084,-4.3094,0,0,0,0,0,0,0,0,0,0,0,0,0,0,0,0,0,0,0,0,0,0,0,0,0,0,0,0,0,0,0,0,0,0,0,0,0,0,0,0,0,0,0,0,0,0,0,0,0,0,0,0,0,0,0,0,0,0,0,0,0,0,0,0,0,0,0,0,0]}],[{"header":{"parameterUnit":"kt","parameterCategory":2,"dx":1,"dy":1,"la1":30.253999710083008,"la2":30.299108505249023,"lo1":-89.0895004272461,"lo2":-89.04439544677734,"nx":28,"ny":28,"refTime":"2022-10-25T21:00:00:Z","depth":0,"parameterNumber":2,"parameterNumberName":"V-component_of_WINDS"},"data":[-7.7802,-7.7958,-7.7972,-7.8153,-7.8196,-7.8321,-7.837,-7.8433,-7.8486,-7.8633,-7.8719,-7.8746,-7.8801,-7.8903,-7.8994,-7.9003,-7.9039,-7.9084,-7.9086,-7.8879,-7.885,-7.8823,-7.8788,-7.9093,-7.9093,-7.9298,-7.93,-7.9302,-7.7646,-7.7691,-7.7792,-7.7899,-7.7985,-7.795,-7.8031,-7.8103,-7.8215,-7.8282,-7.8368,-7.8497,-7.8599,-7.864,-7.8739,-7.8807,-7.8794,-7.8832,-7.8826,-7.8834,-7.8614,-7.8577,-7.8841,-7.8841,-7.8841,-7.8841,-7.8841,-7.8841,-7.7363,-7.7457,-7.753,-7.764,-7.7698,-7.7768,-7.7857,-7.789,-7.7986,-7.8096,-7.8091,-7.8216,-7.8283,-7.8408,-7.8452,-7.8547,-7.8505,-7.855,-7.8561,-7.8571,-7.8581,-7.8279,-7.8564,-7.8563,-7.8563,-7.8562,-7.8562,0,-7.7161,-7.7167,-7.7265,-7.7368,-7.7449,-7.7529,-7.7604,-7.7659,-7.7672,-7.7751,-7.7865,-7.7933,-7.8064,-7.817,-7.8265,-7.8302,-7.827,-7.8269,-7.8299,-7.8302,-7.8292,-7.8296,-7.7934,-7.826,-7.8257,-7.8255,-7.8254,-7.8253,-7.6875,-7.6983,-7.7067,-7.7134,-7.7179,-7.7287,-7.7353,-7.7357,-7.7427,-7.7517,-7.7597,-7.7705,-7.7791,-7.7969,-7.8001,-7.8098,-7.8082,-7.8205,-7.8097,-7.8095,-7.8081,-7.8074,-7.8083,-7.8226,-7.8229,-7.8232,-7.8234,0,-7.6711,-7.6735,-7.6906,-7.6978,-7.7,-7.7111,-7.717,-7.7262,-7.7283,-7.7411,-7.744,-7.7472,-7.7583,-7.7596,-7.7724,-7.7726,-7.7902,-7.7886,-7.7879,-7.7875,-7.7985,-7.7973,-7.8343,-7.839,-7.8077,-7.808,-7.8083,0,-7.6476,-7.6617,-7.6643,-7.6741,-7.6897,-7.6898,-7.7051,-7.7084,-7.7144,-7.7245,-7.7213,-7.7308,-7.731,-7.7405,-7.7409,-7.7556,-7.758,-7.759,-7.7589,-7.7592,-7.7591,-7.7626,-7.761,-7.7586,-7.7584,-7.7582,-7.7581,0,-7.6216,-7.6397,-7.6557,-7.6601,-7.6692,-7.6766,-7.6807,-7.6874,-7.6938,-7.7024,-7.7065,-7.7163,-7.7217,-7.7292,-7.7297,-7.7222,-7.7477,-7.7375,-7.7486,-7.7486,-7.754,-7.7537,-7.7863,-7.7579,-7.7578,-7.7577,-7.7577,0,-7.6029,-7.612,-7.635,-7.6424,-7.6471,-7.6576,-7.6674,-7.6768,-7.684,-7.6851,-7.6918,-7.6897,-7.7029,-7.6927,-7.7106,-7.7008,-7.7061,-7.7083,-7.7091,-7.7102,-7.6987,-7.7166,-7.7477,-7.7509,-7.7113,-7.7109,-7.7106,0,-7.5724,-7.5963,-7.5967,-7.6185,-7.6296,-7.6254,-7.637,-7.6436,-7.6461,-7.6556,-7.6581,-7.6689,-7.6616,-7.6652,-7.6739,-7.6768,-7.6896,-7.6751,-7.6882,-7.6887,-7.6863,-7.715,-7.7192,-7.7408,-7.7057,-7.7062,-7.7066,0,-7.5491,-7.5604,-7.5643,-7.5693,-7.5785,-7.5878,-7.6012,-7.6121,-7.6184,-7.6264,-7.6373,-7.6527,-7.6477,-7.6536,-7.653,-7.662,-7.6809,-7.6554,-7.6556,-7.6598,-7.7034,-7.7073,-7.711,-7.6784,-7.679,-7.6795,-7.7027,0,-7.5198,-7.5321,-7.5428,-7.5542,-7.5617,-7.5755,-7.5774,-7.5849,-7.5836,-7.5859,-7.6021,-7.6079,-7.6188,-7.6234,-7.6222,-7.6426,-7.6393,-7.6339,-7.6239,-7.6428,-7.6505,-7.6536,-7.6124,-7.6121,-7.6119,-7.6117,0,0,-7.4899,-7.5077,-7.5078,-7.521,-7.5273,-7.5228,-7.5373,-7.5428,-7.5542,-7.5585,-7.553,-7.5755,-7.5804,-7.5999,-7.6059,-7.6104,-7.6141,-7.6075,-7.6339,-7.6363,-7.6386,-7.6468,-7.6501,-7.6112,-7.6111,-7.6111,-7.611,0,-7.4796,-7.4854,-7.5,-7.5059,-7.5146,-7.5164,-7.5199,-7.5275,-7.5297,-7.5458,-7.5415,-7.5514,-7.5695,-7.5752,-7.5805,-7.6052,-7.6013,-7.6084,-7.6212,-7.6314,-7.6342,-7.6367,-7.6452,-7.6484,-7.6104,-7.6104,-7.6105,0,-7.4568,-7.4627,-7.47,-7.4845,-7.4901,-7.5018,-7.4918,-7.5046,-7.5132,-7.5072,-7.5233,-7.5267,-7.5345,-7.5528,-7.5611,-7.5563,-7.5895,-7.5794,-7.5809,-7.5818,-7.5918,-7.5951,-7.5981,-7.5587,-7.5585,-7.5583,0,0,-7.4475,-7.4592,-7.4656,-7.4824,-7.4863,-7.4892,-7.4956,-7.4951,-7.5024,-7.5054,-7.5097,-7.5168,-7.5272,-7.5341,-7.544,-7.564,-7.5654,-7.5729,-7.5754,-7.5774,-7.5793,-7.5898,-7.5932,-7.5576,-7.5576,-7.5576,0,0,-7.4431,-7.4513,-7.4488,-7.4687,-7.476,-7.4832,-7.4933,-7.4904,-7.4996,-7.4981,-7.4975,-7.4994,-7.5166,-7.5201,-7.5105,-7.5404,-7.5305,-7.5328,-7.5375,-7.5406,-7.543,-7.5417,-7.5009,0,0,0,0,0,-7.4335,-7.4502,-7.448,-7.4516,-7.4698,-7.4845,-7.4868,-7.4869,-7.4799,-7.4879,-7.491,-7.4864,-7.5147,-7.5063,-7.5097,-7.5203,-7.5486,-7.5502,-7.5517,-7.5624,-7.5656,-7.5684,0,0,0,0,0,0,-7.4349,-7.4394,-7.4475,-7.4555,-7.4595,-7.4839,-7.472,-7.4725,-7.479,-7.478,-7.486,-7.4867,-7.4868,-7.5045,-7.5076,-7.5177,-7.4998,-7.5492,-7.5506,-7.5518,-7.5635,-7.5662,-7.5684,0,0,0,0,0,-7.4361,-7.4397,-7.469,-7.4552,-7.4588,-7.4629,-7.4714,-7.4717,-7.4767,-7.4817,-7.4822,-7.4762,-7.4871,-7.4897,-7.5063,-7.5163,-7.4977,-7.4988,-7.5501,-7.5512,-7.5521,-7.5648,0,0,0,0,0,0,-7.4369,-7.4399,-7.4697,-7.4707,-7.449,-7.4615,-7.4635,-7.471,-7.48,-7.4807,-7.4718,-7.4708,-7.4875,-7.4894,-7.4915,-7.5158,-7.496,-7.4971,-7.4979,-7.5509,-7.5517,-7.5525,0,0,0,0,0,0,-7.438,-7.4409,-7.4702,-7.4623,-7.4625,-7.4602,-7.462,-7.4761,-7.4801,-7.4695,-7.469,-7.4712,-7.4844,-7.4894,-7.4909,-7.5129,-7.4946,-7.4957,-7.4965,-7.497,-7.5516,-7.5522,0,0,0,0,0,0,-7.4392,-7.4417,-7.462,-7.4622,-7.4623,-7.4743,-7.4726,-7.4912,-7.4737,-7.4692,-7.4721,-7.4714,-7.4844,-7.486,-7.4906,-7.512,-7.5127,-7.4947,-7.4954,-7.496,-7.4963,0,0,0,0,0,0,0,-7.4402,-7.4237,-7.4634,-7.4621,-7.4621,-7.4806,-7.4809,-7.4812,-7.4736,-7.4729,-7.4723,-7.4717,-7.4882,-7.4895,-7.4907,-7.5112,0,0,-7.4945,-7.4951,0,0,0,0,0,0,0,0,-7.4226,-7.4234,-7.4634,-7.4636,-7.4639,-7.4807,-7.4809,-7.4811,-7.4735,-7.4729,-7.4724,-7.472,-7.4886,-7.4896,-7.4906,0,0,0,0,0,0,0,0,0,0,0,0,0,0,0,-7.4634,-7.4636,0,-7.4807,-7.4809,-7.4811,-7.4734,-7.473,-7.4725,-7.4721,-7.4888,-7.4897,-7.4905,0,0,0,0,0,0,0,0,0,0,0,0,0,0,0,0,0,0,0,0,0,0,0,0,0,0,0,0,0,0,0,0,0,0,0,0,0,0,0,0,0,0,0,0,0,0,0,0,0,0,0,0,0,0,0,0,0,0,0,0,0,0,0,0,0,0,0,0,0]}]]]